Location: Unspecified
(45.6669°N, 0.0000°E)
Time: 01:09:57
(UTC+00:00)

ISS - Pass Details

Date: 23 May 2019
Orbit: 408 x 418 km, 51.6° (Epoch: 17 June)

Event Time Altitude Azimuth Distance (km) Brightness Sun altitude
Rises 21:22:21 0° 278° (W) 2,353 0.8 -15.0°
Reaches altitude 10° 21:24:36 10° 289° (WNW) 1,493 -0.1 -15.2°
Maximum altitude 21:27:36 30° 353° (N) 785 -1.8 -15.5°
Drops below altitude 10° 21:30:37 10° 56° (ENE) 1,501 -1.0 -15.8°
Sets 21:32:54 0° 68° (ENE) 2,367 -0.1 -16.1°
